When you browse on this site, cookies collect data to enhance your experience and personalize the content and advertising you see.
Visit our Privacy Policy to learn more. By continuing to use the site, you agree to this use of cookies and data.
  • In Hungary
  • List of Countries
  • For 7 days
  • Water Temperature
  • Satellite Maps
  • Weather Map
  • News
  • Weather Widgets
  • user-avatar
    Login

    Hourly Weather Piotrowszczyzna

    Today, 27 May, Monday

    Time Temperature Precipitation Wind Pressure Humidity
    00:00 +13°C° 0 mm 2 mps 743 mmHg 90%
    01:00 +12°C° 0 mm 3 mps 743 mmHg 90%
    02:00 +12°C° 0 mm 3 mps 743 mmHg 90%
    03:00 +12°C° 0 mm 3 mps 743 mmHg 90%
    04:00 +12°C° 0 mm 3 mps 743 mmHg 89%
    05:00 +12°C° 0 mm 3 mps 743 mmHg 89%
    06:00 +14°C° 0 mm 3 mps 743 mmHg 84%
    07:00 +17°C° 0 mm 4 mps 743 mmHg 80%
    08:00 +19°C° 0 mm 4 mps 743 mmHg 75%
    09:00 +20°C° 0.1 mm 5 mps 743 mmHg 70%
    10:00 +21°C° 0.1 mm 5 mps 743 mmHg 64%
    11:00 +23°C° 0.1 mm 6 mps 743 mmHg 59%
    12:00 +23°C° 0.2 mm 6 mps 743 mmHg 59%
    13:00 +23°C° 0.2 mm 6 mps 742 mmHg 59%
    14:00 +24°C° 0.2 mm 6 mps 742 mmHg 59%
    15:00 +25°C° 0.5 mm 5 mps 742 mmHg 62%
    16:00 +23°C° 0.5 mm 5 mps 742 mmHg 65%
    17:00 +23°C° 0.5 mm 5 mps 742 mmHg 68%
    18:00 +22°C° 0.3 mm 4 mps 742 mmHg 73%
    19:00 +20°C° 0.3 mm 3 mps 742 mmHg 78%
    20:00 +19°C° 0.3 mm 2 mps 741 mmHg 83%
    21:00 +18°C° 0 mm 2 mps 742 mmHg 85%
    22:00 +18°C° 0 mm 2 mps 742 mmHg 87%
    23:00 +17°C° 0 mm 3 mps 742 mmHg 88%

    Tomorrow, 28 May, Tuesday

    Time Temperature Precipitation Wind Pressure Humidity
    00:00 +17°C° 0.2 mm 3 mps 741 mmHg 89%
    01:00 +17°C° 0.2 mm 2 mps 741 mmHg 90%
    02:00 +17°C° 0.2 mm 2 mps 741 mmHg 91%
    03:00 +17°C° 0.1 mm 3 mps 740 mmHg 91%
    04:00 +17°C° 0.1 mm 3 mps 740 mmHg 91%
    05:00 +17°C° 0.1 mm 4 mps 740 mmHg 92%
    06:00 +17°C° 0.4 mm 4 mps 739 mmHg 92%
    07:00 +18°C° 0.4 mm 4 mps 739 mmHg 92%
    08:00 +17°C° 0.4 mm 5 mps 739 mmHg 93%
    09:00 +19°C° 0.3 mm 5 mps 739 mmHg 89%
    10:00 +20°C° 0.3 mm 5 mps 739 mmHg 85%
    11:00 +21°C° 0.3 mm 6 mps 739 mmHg 82%
    12:00 +22°C° 0.1 mm 5 mps 739 mmHg 77%
    13:00 +23°C° 0.1 mm 5 mps 738 mmHg 71%
    14:00 +25°C° 0.1 mm 5 mps 738 mmHg 66%
    15:00 +25°C° 1 mm 5 mps 738 mmHg 71%
    16:00 +23°C° 1 mm 4 mps 738 mmHg 77%
    17:00 +22°C° 1 mm 4 mps 738 mmHg 82%
    18:00 +21°C° 1.1 mm 3 mps 738 mmHg 85%
    19:00 +20°C° 1.1 mm 3 mps 738 mmHg 88%
    20:00 +19°C° 1.1 mm 2 mps 738 mmHg 91%
    21:00 +18°C° 0.7 mm 2 mps 739 mmHg 91%
    22:00 +18°C° 0.7 mm 2 mps 739 mmHg 92%
    23:00 +18°C° 0.7 mm 1 mps 739 mmHg 92%

    Day after tomorrow, 29 May, Wednesday

    Time Temperature Precipitation Wind Pressure Humidity
    00:00 +18°C° 0.1 mm 1 mps 739 mmHg 93%
    01:00 +18°C° 0.1 mm 1 mps 739 mmHg 94%
    02:00 +16°C° 0.1 mm 1 mps 739 mmHg 94%
    03:00 +16°C° 0.6 mm 1 mps 739 mmHg 95%
    04:00 +15°C° 0.6 mm 2 mps 740 mmHg 96%
    05:00 +15°C° 0.6 mm 2 mps 740 mmHg 97%
    06:00 +14°C° 0.2 mm 3 mps 740 mmHg 96%
    07:00 +14°C° 0.2 mm 4 mps 741 mmHg 95%
    08:00 +14°C° 0.2 mm 4 mps 741 mmHg 94%
    09:00 +13°C° 0.1 mm 5 mps 742 mmHg 94%
    10:00 +12°C° 0.1 mm 5 mps 743 mmHg 93%
    11:00 +10°C° 0.1 mm 6 mps 743 mmHg 93%
    12:00 +11°C° 0 mm 6 mps 744 mmHg 90%
    13:00 +11°C° 0 mm 6 mps 745 mmHg 88%
    14:00 +12°C° 0 mm 5 mps 745 mmHg 85%
    15:00 +13°C° 0 mm 5 mps 745 mmHg 81%
    16:00 +13°C° 0 mm 5 mps 746 mmHg 78%
    17:00 +14°C° 0 mm 5 mps 746 mmHg 74%
    18:00 +14°C° 0 mm 4 mps 746 mmHg 77%
    19:00 +13°C° 0 mm 4 mps 746 mmHg 79%
    20:00 +13°C° 0 mm 3 mps 747 mmHg 82%
    21:00 +12°C° 0 mm 3 mps 747 mmHg 79%
    22:00 +12°C° 0 mm 4 mps 747 mmHg 77%
    23:00 +12°C° 0 mm 4 mps 748 mmHg 75%

    30 May, Thursday

    Time Temperature Precipitation Wind Pressure Humidity
    00:00 +11°C° 0 mm 4 mps 748 mmHg 75%
    01:00 +10°C° 0 mm 4 mps 748 mmHg 74%
    02:00 +10°C° 0 mm 4 mps 748 mmHg 74%
    03:00 +8°C° 0 mm 4 mps 748 mmHg 77%
    04:00 +7°C° 0 mm 4 mps 748 mmHg 80%
    05:00 +6°C° 0 mm 4 mps 748 mmHg 83%
    06:00 +8°C° 0 mm 4 mps 748 mmHg 82%
    07:00 +11°C° 0 mm 4 mps 748 mmHg 80%
    08:00 +12°C° 0 mm 4 mps 749 mmHg 79%
    09:00 +14°C° 0 mm 4 mps 749 mmHg 72%
    10:00 +15°C° 0 mm 4 mps 749 mmHg 66%
    11:00 +17°C° 0 mm 4 mps 749 mmHg 60%
    12:00 +18°C° 0 mm 4 mps 749 mmHg 57%
    13:00 +18°C° 0 mm 4 mps 749 mmHg 55%
    14:00 +19°C° 0 mm 4 mps 749 mmHg 52%
    15:00 +19°C° 0 mm 4 mps 749 mmHg 53%
    16:00 +19°C° 0 mm 4 mps 749 mmHg 55%
    17:00 +19°C° 0 mm 4 mps 749 mmHg 56%
    18:00 +18°C° 0 mm 3 mps 749 mmHg 62%
    19:00 +16°C° 0 mm 2 mps 749 mmHg 68%
    20:00 +15°C° 0 mm 2 mps 749 mmHg 73%
    21:00 +14°C° 0 mm 2 mps 749 mmHg 75%
    22:00 +13°C° 0 mm 1 mps 750 mmHg 76%
    23:00 +12°C° 0 mm 1 mps 750 mmHg 77%

    31 May, Friday

    Time Temperature Precipitation Wind Pressure Humidity
    00:00 +11°C° 0 mm 1 mps 750 mmHg 78%
    01:00 +11°C° 0 mm 1 mps 750 mmHg 79%
    02:00 +10°C° 0 mm 1 mps 750 mmHg 81%
    03:00 +10°C° 0 mm 1 mps 750 mmHg 81%
    04:00 +9°C° 0 mm 0 mps 750 mmHg 81%
    05:00 +9°C° 0 mm 0 mps 750 mmHg 81%
    06:00 +11°C° 0 mm 0 mps 750 mmHg 76%
    07:00 +13°C° 0 mm 0 mps 750 mmHg 71%
    08:00 +15°C° 0 mm 0 mps 750 mmHg 66%
    09:00 +16°C° 0 mm 0 mps 750 mmHg 63%
    10:00 +20°C° 0 mm 1 mps 750 mmHg 59%
    11:00 +21°C° 0 mm 1 mps 750 mmHg 55%
    12:00 +22°C° 0 mm 1 mps 749 mmHg 53%
    13:00 +21°C° 0 mm 0 mps 749 mmHg 51%
    14:00 +21°C° 0 mm 0 mps 749 mmHg 49%
    15:00 +23°C° 0 mm 1 mps 748 mmHg 50%
    16:00 +23°C° 0 mm 1 mps 748 mmHg 50%
    17:00 +23°C° 0 mm 1 mps 748 mmHg 51%
    18:00 +22°C° 0 mm 1 mps 748 mmHg 57%
    19:00 +20°C° 0 mm 1 mps 748 mmHg 62%
    20:00 +19°C° 0 mm 1 mps 747 mmHg 68%
    21:00 +18°C° 0.1 mm 1 mps 747 mmHg 72%
    22:00 +16°C° 0.1 mm 2 mps 747 mmHg 75%
    23:00 +16°C° 0.1 mm 2 mps 747 mmHg 78%

    1 June, Saturday

    Time Temperature Precipitation Wind Pressure Humidity
    00:00 +15°C° 0 mm 2 mps 747 mmHg 80%
    01:00 +15°C° 0 mm 1 mps 747 mmHg 82%
    02:00 +14°C° 0 mm 1 mps 747 mmHg 84%
    03:00 +14°C° 0 mm 1 mps 747 mmHg 86%
    04:00 +13°C° 0 mm 0 mps 747 mmHg 87%
    05:00 +13°C° 0 mm 0 mps 747 mmHg 88%
    06:00 +15°C° 0 mm 1 mps 747 mmHg 84%
    07:00 +16°C° 0 mm 1 mps 747 mmHg 80%
    08:00 +18°C° 0 mm 1 mps 748 mmHg 76%
    09:00 +18°C° 0 mm 2 mps 748 mmHg 72%
    10:00 +19°C° 0 mm 2 mps 748 mmHg 67%
    11:00 +20°C° 0 mm 3 mps 748 mmHg 62%
    12:00 +21°C° 0.1 mm 4 mps 748 mmHg 63%
    13:00 +21°C° 0.1 mm 4 mps 748 mmHg 63%
    14:00 +21°C° 0.1 mm 5 mps 748 mmHg 64%
    15:00 +20°C° 0.1 mm 5 mps 748 mmHg 67%
    16:00 +20°C° 0.1 mm 5 mps 748 mmHg 70%
    17:00 +19°C° 0.1 mm 5 mps 748 mmHg 73%
    18:00 +17°C° 0 mm 5 mps 748 mmHg 76%
    19:00 +16°C° 0 mm 5 mps 748 mmHg 79%
    20:00 +15°C° 0 mm 4 mps 748 mmHg 82%
    21:00 +14°C° 0 mm 4 mps 748 mmHg 84%
    22:00 +13°C° 0 mm 4 mps 749 mmHg 87%
    23:00 +12°C° 0 mm 4 mps 749 mmHg 89%
    Show more